STARLINK-33891, 63827

Orbit data source: Space-Track

STARLINK-33891, 63827 is a payload satellite owned by SpaceX/Seattle (US) in LEO that was launched on Sun, 04 May 2025 UTC via an FALCON 9 launch vehicle from the Air Force Eastern Test Range (AFETR). Payload-class satellites include a variety of spacecraft equipped with specific instruments for various scientific and technological missions. These include communications satellites like Starlink; space stations such as the ISS; scientific satellites like the Hubble; Earth observation satellites from companies like Planet Labs, Umbra, and HawkEye 360; GPS; miniature CubeSats for education and research; and military/defense satellites.

Loading next visibility...
Identifier
63827, 2025-092Z
Orbit
LEO
Country
Flag of USUS
Related business
Manufacturer
SpaceX/Seattle
Mission
Operational Commercial Communications
Bus & Motor
STARLINK V2MO, Unknown motor
Mass
575 kg wet, ~530 kg dry
Launch date (UTC)
2025-05-04 (5 months ago)
Launch vehicle
FALCON 9
Launch site
Air Force Eastern Test Range (AFETR)
Object type
Payload
Rocket body
Debris
Shape & HBR
Box + 1 Pan, 14.5 m
Radar Cross Section
41.120 m², Large (>1 m²)

Expand to show TLE details & history
Last TLE update: 1 day ago

TLE from 1 day ago
0 STARLINK-33891
1 63827U 25092Z   25260.50383439  .00032160  00000-0  11721-2 0  9990
2 63827  43.0045  70.9827 0004573 286.4135  73.6214 15.27601676 22069
Epoch: 2025-09-17T12:05Z
TLE epoch observation values (Epoch: 2025-09-17T12:05:31.291Z)
Latitude
-0°
Longitude
-107.07652°
Altitude
481.877 km
Speed
7.627 km/s
True Right ascension
04h 43m 55s
True Declination
0° 00' 00"
Sunlit
Object was in daylight at epoch
Visualization orbit readout
Latitude
Unknown
Longitude
Unknown
Altitude
Unknown
Speed
Unknown
Apparent Right ascension
Unknown
Apparent Declination
Unknown
Sunlit
N/A
Visualization observer readout
Local Sidereal Time
07:53:59
Azimuth
Unknown
Elevation
Unknown
Doppler factor
Unknown
Orbital elements
Apogee altitude
488.067 km
Perigee altitude
481.79 km
Semi-major axis
6,863.066 km
Eccentricity
0.00046
Inclination
43.0045°
RAAN
70.9827°
Arg. of periapsis
286.4135°
True anomaly
73.67168°
Mean anomaly
73.6214°
Eccentric anomaly
73.64654°
Mean motion
3.81738 °/min
Orbital period
94.31 mins
BSTAR
0.0011721
Loading maneuver chart data...
Computing Atmospheric mass density...
Loading historical data...
Loading historical data...
Loading historical data...
Loading historical data...
Loading historical data...
Loading historical data...
Loading historical data...

Documentation

Showing up to 5 results
|